R/V Knorr Calliope CSV data file - KN193_II  (Time stamps are GMT)
Date, Time_GMT, Depth12, Depth35, Air_Temp, WXT5_Ta, WXT5_Pa, dec_lat, dec_lon, EDO_knt, GPS_COG, GPS_SOG, Gyro, IMET_BPR, IMET_SWR, WXT5_Ri, WXT5_Rc, HRH, WXT5_Ua, WXT5_Dm, WXT5_Sm, SBE45C, SBE45S, SBE45T, Salinity, SSCND, Fluorometer, SSTMP, SSV, Wnd_Dir, TWD_5, Wnd_Spd, TWS_5, HdChkSum=52
2008/04/16, 00:00:44, 185.00, 0.00, -17.36, -16.60, 996.6, 80.1990350, 11.1107970, , 118.50, 1.20, 189.40, 997.67, 5.40, 0.0, 38.45, 78.09, 89.5, 117, 9.4, 30.83810, 34.56120, 2.4706, 34.5612, 30.8381, 76.30, 0.9276, 1452.76, 284.80, 303.8, 6.47, 10.0, 52
2008/04/16, 00:01:43, 184.00, 0.00, -17.50, -16.60, 996.6, 80.1988730, 11.1126320, , 116.90, 1.22, 198.90, 997.68, 5.30, 0.0, 38.45, 78.04, 88.7, 94, 6.1, 30.84630, 34.56210, 2.4792, 34.5621, 30.8463, 76.50, 0.9228, 1452.74, 297.40, 289.7, 7.01, 6.7, 52
2008/04/16, 00:02:43, 183.10, 0.00, -17.23, -16.70, 996.6, 80.1987680, 11.1143170, , 103.10, 1.06, 222.90, 997.65, 4.90, 0.0, 38.45, 78.07, 88.7, 82, 6.0, 30.84600, 34.56160, 2.4793, 34.5616, 30.8460, 76.80, 0.9186, 1452.72, 317.60, 299.7, 7.00, 6.5, 52
2008/04/16, 00:03:44, 181.40, 0.00, -17.39, -16.60, 996.7, 80.1987270, 11.1157830, , 101.30, 0.83, 234.00, 997.69, 5.20, 0.0, 38.45, 78.12, 89.3, 60, 6.8, 30.83570, 34.55920, 2.4698, 34.5592, 30.8357, 76.80, 0.9140, 1452.70, 320.10, 290.0, 6.42, 7.2, 52
2008/04/16, 00:04:44, 181.30, 0.00, -17.45, -16.50, 996.7, 80.1987080, 11.1171200, , 92.50, 0.84, 245.10, 997.78, 5.30, 0.0, 38.45, 78.12, 89.4, 42, 8.1, 30.82310, 34.55800, 2.4565, 34.5580, 30.8231, 77.80, 0.9095, 1452.68, 315.50, 283.4, 6.37, 8.5, 52
2008/04/16, 00:05:44, 181.30, 0.00, -17.45, -16.60, 996.6, 80.1987250, 11.1182980, , 83.30, 0.64, 245.40, 997.80, 5.20, 0.0, 38.45, 78.14, 88.9, 32, 10.1, 30.80780, 34.55680, 2.4400, 34.5568, 30.8078, 77.80, 0.9049, 1452.66, 297.90, 274.8, 6.82, 10.4, 52
2008/04/16, 00:06:44, 181.50, 0.00, -17.34, -16.60, 996.6, 80.1987330, 11.1193430, , 87.50, 0.65, 245.20, 997.76, 4.70, 0.0, 38.45, 78.17, 88.8, 33, 8.2, 30.79320, 34.55680, 2.4233, 34.5568, 30.7932, 79.00, 0.8987, 1452.63, 287.60, 275.3, 6.68, 8.5, 52
2008/04/16, 00:07:43, 181.80, 0.00, -17.61, -16.70, 996.7, 80.1987430, 11.1203020, , 84.70, 0.51, 245.30, 997.79, 4.60, 0.0, 38.45, 77.89, 88.4, 34, 9.1, 30.78300, 34.55710, 2.4113, 34.5571, 30.7830, 79.30, 0.8926, 1452.60, 290.30, 276.7, 6.73, 9.4, 52
2008/04/16, 00:08:43, 181.70, 0.00, -17.64, -16.80, 996.6, 80.1987430, 11.1211180, , 90.50, 0.48, 245.30, 997.86, 4.10, 0.0, 38.45, 77.74, 88.0, 32, 8.6, 30.77870, 34.55850, 2.4053, 34.5585, 30.7787, 79.30, 0.8877, 1452.58, 287.10, 274.7, 6.15, 8.8, 52
2008/04/16, 00:09:43, 181.80, 0.00, -17.64, -17.00, 996.6, 80.1987370, 11.1219320, , 102.10, 0.58, 244.80, 997.77, 4.50, 0.0, 38.45, 77.84, 88.2, 45, 7.8, 30.78120, 34.56070, 2.4060, 34.5607, 30.7812, 79.00, 0.8848, 1452.57, 290.50, 287.0, 6.02, 8.1, 52
2008/04/16, 00:10:43, 181.90, 0.00, -17.78, -16.90, 996.7, 80.1987200, 11.1227900, , 93.70, 0.50, 245.60, 997.85, 4.20, 0.0, 38.45, 77.67, 88.4, 29, 10.9, 30.77850, 34.56190, 2.4018, 34.5619, 30.7785, 78.70, 0.8830, 1452.56, 296.20, 272.2, 6.45, 11.2, 52
2008/04/16, 00:11:43, 181.70, 0.00, -17.70, -17.00, 996.7, 80.1987220, 11.1236230, , 89.10, 0.50, 245.20, 997.79, 4.10, 0.0, 38.45, 77.79, 88.1, 32, 6.1, 30.77500, 34.56290, 2.3969, 34.5629, 30.7750, 79.60, 0.8804, 1452.55, 288.00, 274.6, 6.41, 6.4, 52
2008/04/16, 00:12:43, 181.50, 0.00, -17.75, -17.00, 996.7, 80.1987220, 11.1244680, , 79.20, 0.49, 245.20, 997.78, 4.30, 0.0, 38.45, 77.79, 88.6, 39, 7.2, 30.77170, 34.56450, 2.3916, 34.5645, 30.7717, 78.40, 0.8789, 1452.55, 286.90, 281.6, 6.13, 7.5, 52
2008/04/16, 00:13:43, 181.30, 0.00, -17.78, -17.00, 996.7, 80.1987150, 11.1252880, , 91.50, 0.51, 244.90, 997.83, 4.40, 0.0, 38.45, 77.79, 88.3, 30, 6.0, 30.76760, 34.56440, 2.3871, 34.5644, 30.7676, 79.60, 0.8783, 1452.55, 290.80, 272.6, 6.88, 6.3, 52
2008/04/16, 00:14:44, 181.20, 0.00, -17.70, -17.00, 996.7, 80.1986920, 11.1261530, , 95.10, 0.52, 245.20, 997.81, 4.80, 0.0, 38.45, 77.89, 88.5, 17, 4.1, 30.76290, 34.56470, 2.3814, 34.5647, 30.7629, 80.80, 0.8777, 1452.54, 289.00, 261.1, 6.45, 4.4, 52
2008/04/16, 00:15:43, 180.90, 0.00, -17.84, -17.00, 996.7, 80.1986630, 11.1270720, , 110.40, 0.66, 245.30, 997.82, 4.80, 0.0, 38.45, 77.84, 88.5, 48, 7.3, 30.75450, 34.56420, 2.3722, 34.5642, 30.7545, 80.50, 0.8774, 1452.54, 296.10, 290.4, 6.21, 7.6, 52
2008/04/16, 00:16:43, 179.90, 0.00, -17.98, -17.10, 996.8, 80.1986370, 11.1279670, , 96.10, 0.55, 245.40, 997.85, 5.00, 0.0, 38.45, 77.67, 87.8, 31, 4.7, 30.74860, 34.56400, 2.3657, 34.5640, 30.7486, 79.60, 0.8787, 1452.55, 299.10, 274.3, 6.85, 5.0, 52
2008/04/16, 00:17:43, 179.00, 0.00, -17.92, -17.20, 996.8, 80.1986070, 11.1288280, , 96.80, 0.45, 245.20, 997.88, 4.60, 0.0, 38.45, 77.69, 88.0, 20, 2.9, 30.74630, 34.56460, 2.3625, 34.5646, 30.7463, 79.60, 0.8804, 1452.56, 292.50, 264.4, 6.24, 3.2, 52
2008/04/16, 00:18:44, 179.80, 0.00, -18.20, -17.20, 996.8, 80.1985680, 11.1296100, , 113.50, 0.46, 245.30, 997.87, 4.60, 0.0, 38.45, 77.57, 88.3, 39, 6.1, 30.74620, 34.56430, 2.3625, 34.5643, 30.7462, 80.20, 0.8822, 1452.56, 294.80, 282.1, 6.20, 6.3, 52
2008/04/16, 00:19:43, 178.80, 0.00, -17.98, -17.30, 996.8, 80.1985230, 11.1302430, , 113.30, 0.40, 245.50, 997.90, 4.50, 0.0, 38.45, 77.57, 88.1, 39, 6.4, 30.74780, 34.56440, 2.3643, 34.5644, 30.7478, 79.30, 0.8818, 1452.56, 294.20, 282.4, 6.39, 6.6, 52
2008/04/16, 00:20:43, 179.20, 0.00, -17.84, -17.30, 996.9, 80.1984800, 11.1308080, , 116.30, 0.40, 245.10, 997.89, 5.10, 0.0, 38.45, 77.62, 88.4, 44, 7.0, 30.74600, 34.56500, 2.3618, 34.5650, 30.7460, 80.50, 0.8808, 1452.56, 290.70, 287.2, 5.93, 7.2, 52
2008/04/16, 00:21:43, 353.80, 0.00, -17.89, -17.20, 996.8, 80.1984120, 11.1313530, , 125.70, 0.36, 245.30, 997.85, 5.60, 0.0, 38.45, 77.77, 88.7, 36, 7.9, 30.74730, 34.56640, 2.3620, 34.5664, 30.7473, 79.30, 0.8795, 1452.55, 293.40, 279.9, 6.00, 8.1, 52
2008/04/16, 00:22:43, 179.40, 0.00, -17.78, -17.10, 996.9, 80.1983530, 11.1318300, , 119.90, 0.32, 245.40, 997.88, 5.50, 0.0, 38.45, 77.82, 88.9, 27, 4.0, 30.74940, 34.56650, 2.3642, 34.5665, 30.7494, 79.90, 0.8777, 1452.55, 296.60, 271.6, 6.46, 4.2, 52
2008/04/16, 00:23:43, 177.50, 0.00, -17.81, -17.10, 996.8, 80.1983000, 11.1322950, , 130.30, 0.41, 244.80, 997.89, 5.70, 0.0, 38.45, 77.94, 89.0, 46, 6.8, 30.74680, 34.56520, 2.3624, 34.5652, 30.7468, 79.60, 0.8758, 1452.54, 289.20, 288.8, 5.87, 7.0, 52
2008/04/16, 00:24:43, 177.00, 0.00, -17.89, -17.10, 996.9, 80.1982280, 11.1327770, , 129.50, 0.35, 245.60, 997.96, 6.30, 0.0, 38.45, 77.92, 88.5, 34, 6.5, 30.74720, 34.56430, 2.3638, 34.5643, 30.7472, 79.60, 0.8751, 1452.53, 298.30, 278.3, 6.28, 6.7, 52
2008/04/16, 00:25:43, 190.70, 0.00, -17.81, -17.20, 996.9, 80.1981750, 11.1332470, , 130.80, 0.38, 244.70, 997.98, 6.60, 0.0, 38.45, 77.77, 88.5, 39, 6.9, 30.74920, 34.56430, 2.3660, 34.5643, 30.7492, 79.30, 0.8795, 1452.55, 298.50, 281.8, 6.55, 7.1, 52
2008/04/16, 00:26:43, 177.30, 0.00, -17.86, -17.20, 996.9, 80.1981230, 11.1337230, , 118.10, 0.38, 245.40, 997.96, 6.00, 0.0, 38.45, 77.79, 88.6, 36, 6.2, 30.75320, 34.56530, 2.3697, 34.5653, 30.7532, 79.30, 0.8843, 1452.57, 293.90, 279.6, 5.87, 6.4, 52
2008/04/16, 00:27:44, 177.30, 0.00, -17.84, -17.20, 996.9, 80.1980900, 11.1341700, , 111.80, 0.30, 245.00, 997.97, 5.60, 0.0, 38.45, 77.77, 88.8, 9, 2.1, 30.75370, 34.56490, 2.3707, 34.5649, 30.7537, 79.00, 0.8924, 1452.61, 291.50, 255.7, 6.19, 2.2, 52
2008/04/16, 00:28:43, 197.90, 0.00, -17.84, -17.20, 996.9, 80.1980620, 11.1346030, , 104.10, 0.29, 245.20, 997.91, 5.70, 0.0, 38.45, 77.94, 88.7, 34, 6.5, 30.75190, 34.56370, 2.3697, 34.5637, 30.7519, 79.30, 0.8983, 1452.63, 286.10, 277.0, 5.82, 6.7, 52
2008/04/16, 00:29:43, 177.70, 0.00, -17.86, -17.10, 996.9, 80.1980320, 11.1350820, , 114.30, 0.30, 245.20, 997.95, 6.00, 0.0, 38.45, 77.92, 88.8, 11, 1.7, 30.74850, 34.56290, 2.3665, 34.5629, 30.7485, 79.30, 0.9017, 1452.65, 285.80, 257.1, 6.20, 1.8, 52
2008/04/16, 00:30:44, 177.00, 0.00, -17.86, -17.10, 996.9, 80.1979820, 11.1356180, , 123.70, 0.42, 245.10, 997.98, 6.10, 0.0, 38.45, 77.82, 88.7, 45, 5.9, 30.74580, 34.56270, 2.3637, 34.5627, 30.7458, 79.30, 0.9031, 1452.66, 285.40, 287.9, 6.44, 6.1, 52
2008/04/16, 00:31:43, 176.70, 0.00, -17.89, -17.10, 996.9, 80.1979350, 11.1361470, , 111.80, 0.37, 245.10, 998.00, 6.10, 0.0, 38.45, 78.02, 89.0, 0, 1.2, 30.74430, 34.56250, 2.3622, 34.5625, 30.7443, 79.90, 0.9028, 1452.65, 294.40, 247.7, 6.16, 1.3, 52
2008/04/16, 00:32:43, 176.60, 0.00, -17.70, -17.10, 996.9, 80.1978930, 11.1366250, , 121.40, 0.43, 245.00, 997.96, 6.00, 0.0, 38.45, 77.92, 88.4, 21, 4.5, 30.74110, 34.56310, 2.3580, 34.5631, 30.7411, 79.30, 0.9023, 1452.65, 284.70, 264.5, 5.77, 4.7, 52
2008/04/16, 00:33:43, 176.60, 0.00, -17.73, -17.10, 997.0, 80.1978520, 11.1371170, , 124.30, 0.42, 245.60, 997.99, 6.00, 0.0, 38.45, 77.97, 88.9, 345, 3.3, 30.74450, 34.56440, 2.3605, 34.5644, 30.7445, 79.30, 0.9018, 1452.65, 289.20, 231.1, 6.03, 3.4, 52
2008/04/16, 00:34:43, 176.50, 0.00, -17.84, -17.00, 997.0, 80.1978230, 11.1376250, , 99.70, 0.28, 245.10, 998.00, 6.30, 0.0, 38.45, 77.84, 89.1, 1, 1.8, 30.75550, 34.56700, 2.3709, 34.5670, 30.7555, 78.70, 0.9023, 1452.66, 284.20, 248.6, 5.98, 1.9, 52
2008/04/16, 00:35:43, 176.40, 0.00, -17.75, -17.00, 996.9, 80.1977920, 11.1381850, , 105.10, 0.38, 245.40, 998.03, 6.10, 0.0, 38.45, 77.89, 88.7, 356, 1.4, 30.76300, 34.56770, 2.3787, 34.5677, 30.7630, 78.70, 0.9019, 1452.66, 281.70, 242.9, 6.47, 1.5, 52
2008/04/16, 00:36:44, 176.60, 0.00, -17.89, -17.10, 996.9, 80.1977680, 11.1387630, , 101.70, 0.32, 245.50, 998.08, 6.10, 0.0, 38.45, 77.74, 88.4, 343, 4.1, 30.77500, 34.56930, 2.3910, 34.5693, 30.7750, 78.40, 0.9004, 1452.65, 281.10, 228.6, 6.42, 4.2, 52
2008/04/16, 00:37:43, 176.60, 0.00, -17.95, -17.10, 996.9, 80.1977350, 11.1393050, , 107.30, 0.28, 245.30, 998.08, 6.10, 0.0, 38.45, 77.84, 88.7, 15, 5.7, 30.78040, 34.56930, 2.3972, 34.5693, 30.7804, 78.40, 0.8974, 1452.64, 285.80, 259.3, 5.64, 5.9, 52
2008/04/16, 00:38:43, 176.30, 0.00, -17.86, -17.20, 997.0, 80.1976880, 11.1398400, , 118.80, 0.46, 245.50, 998.00, 5.80, 0.0, 38.45, 77.87, 88.6, 358, 1.5, 30.77790, 34.56750, 2.3959, 34.5675, 30.7779, 78.70, 0.8948, 1452.63, 285.50, 245.1, 6.26, 1.6, 52
2008/04/16, 00:39:44, 176.00, 0.00, -17.78, -17.10, 996.9, 80.1976470, 11.1404120, , 112.90, 0.34, 244.90, 998.04, 6.00, 0.0, 38.45, 77.89, 89.0, 26, 5.9, 30.77540, 34.56760, 2.3930, 34.5676, 30.7754, 77.80, 0.8916, 1452.61, 285.00, 269.5, 6.11, 6.1, 52
2008/04/16, 00:40:43, 352.70, 0.00, -17.73, -17.10, 997.0, 80.1975900, 11.1410050, , 121.70, 0.51, 245.30, 998.07, 6.90, 0.0, 38.45, 77.99, 88.7, 36, 8.4, 30.77110, 34.56630, 2.3893, 34.5663, 30.7711, 78.40, 0.8868, 1452.59, 287.10, 279.3, 6.35, 8.6, 52
2008/04/16, 00:41:44, 175.70, 0.00, -17.89, -17.10, 997.0, 80.1975220, 11.1416300, , 121.60, 0.47, 245.30, 998.05, 7.00, 0.0, 38.45, 77.79, 88.5, 30, 7.6, 30.76870, 34.56580, 2.3871, 34.5658, 30.7687, 78.40, 0.8798, 1452.56, 290.90, 273.5, 6.23, 7.8, 52
2008/04/16, 00:42:43, 346.30, 0.00, -17.86, -17.20, 997.0, 80.1974450, 11.1422130, , 132.80, 0.44, 245.40, 998.03, 6.90, 0.0, 38.45, 77.82, 88.7, 22, 4.0, 30.76680, 34.56590, 2.3847, 34.5659, 30.7668, 78.40, 0.8761, 1452.54, 293.00, 267.1, 6.61, 4.2, 52
2008/04/16, 00:43:44, 175.50, 0.00, -17.89, -17.20, 996.9, 80.1973880, 11.1427850, , 121.70, 0.46, 245.20, 998.08, 7.20, 0.0, 38.45, 77.79, 88.6, 27, 5.6, 30.76690, 34.56570, 2.3851, 34.5657, 30.7669, 78.40, 0.8698, 1452.51, 290.80, 270.8, 6.45, 5.8, 52
2008/04/16, 00:44:43, 175.30, 0.00, -17.86, -17.20, 996.9, 80.1973220, 11.1434270, , 123.80, 0.47, 245.20, 997.97, 7.20, 0.0, 38.45, 77.84, 88.2, 3, 1.5, 30.76540, 34.56520, 2.3839, 34.5652, 30.7654, 77.80, 0.8654, 1452.49, 285.50, 252.3, 6.54, 1.7, 52
2008/04/16, 00:45:43, 174.90, 0.00, -17.95, -17.20, 997.0, 80.1972670, 11.1440430, , 96.30, 0.36, 246.00, 998.07, 7.30, 0.0, 38.45, 77.77, 88.5, 336, 2.3, 30.76130, 34.56420, 2.3800, 34.5642, 30.7613, 78.70, 0.8671, 1452.49, 288.00, 225.0, 7.12, 2.4, 52
2008/04/16, 00:46:43, 174.80, 0.00, -17.95, -17.20, 997.0, 80.1972280, 11.1447000, , 116.80, 0.47, 244.90, 998.08, 8.00, 0.0, 38.45, 77.77, 88.5, 34, 8.5, 30.75750, 34.56440, 2.3755, 34.5644, 30.7575, 79.00, 0.8687, 1452.50, 279.90, 276.7, 6.64, 8.7, 52
2008/04/16, 00:47:43, 174.30, 0.00, -18.00, -17.20, 997.0, 80.1971730, 11.1453180, , 114.50, 0.40, 245.30, 998.04, 8.10, 0.0, 38.45, 77.64, 88.4, 16, 1.3, 30.75340, 34.56420, 2.3709, 34.5642, 30.7534, 79.30, 0.8711, 1452.51, 288.20, 264.7, 6.82, 1.5, 52
2008/04/16, 00:48:43, 174.00, 0.00, -18.00, -17.30, 997.1, 80.1971120, 11.1460230, , 112.90, 0.48, 245.20, 998.09, 8.50, 0.0, 38.45, 77.52, 88.2, 35, 8.3, 30.74930, 34.56420, 2.3663, 34.5642, 30.7493, 79.00, 0.8694, 1452.51, 285.40, 278.5, 6.96, 8.6, 52
2008/04/16, 00:49:43, 347.80, 0.00, -18.03, -17.30, 997.1, 80.1970550, 11.1468170, , 118.10, 0.58, 245.30, 998.15, 8.10, 0.0, 38.45, 77.62, 88.2, 33, 8.1, 30.74260, 34.56380, 2.3590, 34.5638, 30.7426, 79.30, 0.8656, 1452.49, 288.60, 276.3, 7.25, 8.3, 52
2008/04/16, 00:50:43, 172.70, 0.00, -18.14, -17.40, 997.1, 80.1969870, 11.1476830, , 109.20, 0.55, 245.20, 998.02, 8.70, 0.0, 38.45, 77.49, 88.4, 33, 7.7, 30.73310, 34.56410, 2.3478, 34.5641, 30.7331, 79.90, 0.8626, 1452.47, 288.30, 277.0, 7.07, 8.0, 52
2008/04/16, 00:51:43, 345.40, 0.00, -18.06, -17.40, 997.1, 80.1969200, 11.1486030, , 111.80, 0.61, 245.30, 998.12, 8.60, 0.0, 38.45, 77.49, 88.0, 33, 8.5, 30.73180, 34.56550, 2.3450, 34.5655, 30.7318, 79.90, 0.8584, 1452.46, 291.60, 276.5, 7.37, 8.8, 52
2008/04/16, 00:52:44, 172.30, 0.00, -18.25, -17.50, 997.1, 80.1968570, 11.1495270, , 108.20, 0.57, 245.30, 998.19, 8.00, 0.0, 38.45, 77.34, 88.1, 22, 5.2, 30.72520, 34.56500, 2.3380, 34.5650, 30.7252, 80.50, 0.8538, 1452.44, 289.70, 266.7, 7.22, 5.5, 52
2008/04/16, 00:53:43, 172.40, 0.00, -18.20, -17.50, 997.1, 80.1968030, 11.1504380, , 102.10, 0.51, 245.30, 998.15, 8.70, 0.0, 38.45, 77.32, 88.2, 321, 1.3, 30.72590, 34.56770, 2.3362, 34.5677, 30.7259, 79.90, 0.8486, 1452.42, 291.30, 216.8, 6.79, 1.4, 52
2008/04/16, 00:54:43, 340.40, 0.00, -18.09, -17.40, 997.1, 80.1967530, 11.1512880, , 112.10, 0.56, 245.20, 998.06, 9.70, 0.0, 38.45, 77.47, 89.0, 30, 5.5, 30.73410, 34.56970, 2.3438, 34.5697, 30.7341, 78.70, 0.8428, 1452.39, 286.50, 273.3, 6.31, 5.8, 52
2008/04/16, 00:55:43, 173.00, 0.00, -18.00, -17.30, 997.1, 80.1966980, 11.1521300, , 99.70, 0.51, 245.70, 998.18, 10.00, 0.0, 38.45, 77.87, 89.0, 330, 1.1, 30.74000, 34.57050, 2.3498, 34.5705, 30.7400, 79.30, 0.8367, 1452.37, 288.90, 225.8, 6.69, 1.2, 52
2008/04/16, 00:56:43, 172.90, 0.00, -18.00, -17.20, 997.1, 80.1966670, 11.1529580, , 102.50, 0.56, 244.60, 998.20, 10.10, 0.0, 38.45, 77.89, 88.9, 11, 4.4, 30.74350, 34.57040, 2.3539, 34.5704, 30.7435, 78.70, 0.8308, 1452.34, 281.20, 255.3, 6.56, 4.7, 52
2008/04/16, 00:57:43, 171.20, 0.00, -17.92, -17.20, 997.1, 80.1966080, 11.1538180, , 109.00, 0.57, 245.10, 998.11, 11.60, 0.0, 38.45, 77.89, 89.2, 35, 8.3, 30.73490, 34.56970, 2.3448, 34.5697, 30.7349, 79.60, 0.8284, 1452.33, 286.30, 278.3, 6.79, 8.6, 52
2008/04/16, 00:58:43, 171.30, 0.00, -18.03, -17.20, 997.1, 80.1965370, 11.1546850, , 111.70, 0.49, 245.30, 998.22, 10.10, 0.0, 38.45, 77.72, 88.5, 22, 5.0, 30.72590, 34.56900, 2.3350, 34.5690, 30.7259, 79.60, 0.8255, 1452.31, 292.90, 266.9, 6.96, 5.3, 52
2008/04/16, 00:59:43, 354.90, 0.00, -17.95, -17.20, 997.1, 80.1964750, 11.1554930, , 120.10, 0.63, 245.00, 998.19, 9.80, 0.0, 38.45, 77.74, 88.4, 32, 5.8, 30.72300, 34.56890, 2.3318, 34.5689, 30.7230, 80.80, 0.8224, 1452.30, 290.60, 274.9, 6.67, 6.0, 52
2008/04/16, 01:00:43, 172.40, 0.00, -18.03, -17.30, 997.2, 80.1964170, 11.1563200, , 114.10, 0.55, 245.20, 998.19, 10.30, 0.0, 38.45, 77.67, 88.6, 31, 6.5, 30.71880, 34.56870, 2.3272, 34.5687, 30.7188, 79.90, 0.8186, 1452.28, 290.50, 274.5, 6.44, 6.8, 52
2008/04/16, 01:01:43, 172.10, 0.00, -17.81, -17.30, 997.2, 80.1963720, 11.1570920, , 102.60, 0.47, 245.10, 998.27, 10.00, 0.0, 38.45, 77.72, 88.4, 354, 3.9, 30.71330, 34.56780, 2.3217, 34.5678, 30.7133, 80.20, 0.8163, 1452.27, 290.30, 239.2, 6.60, 4.1, 52
2008/04/16, 01:02:43, 170.80, 0.00, -18.12, -17.30, 997.2, 80.1963220, 11.1579450, , 109.30, 0.57, 245.20, 998.18, 10.20, 0.0, 38.45, 77.67, 88.8, 33, 8.5, 30.70630, 34.56750, 2.3140, 34.5675, 30.7063, 80.50, 0.8155, 1452.27, 285.80, 276.1, 5.92, 8.8, 52
2008/04/16, 01:03:43, 169.40, 0.00, -18.17, -17.30, 997.2, 80.1962670, 11.1588400, , 106.20, 0.60, 245.60, 998.19, 9.40, 0.0, 38.45, 77.44, 88.1, 25, 5.0, 30.69760, 34.56610, 2.3053, 34.5661, 30.6976, 80.20, 0.8191, 1452.28, 292.40, 269.5, 6.94, 5.3, 52
2008/04/16, 01:04:43, 332.50, 0.00, -17.95, -17.40, 997.2, 80.1962080, 11.1597080, , 108.00, 0.53, 244.90, 998.19, 8.90, 0.0, 38.45, 77.64, 88.0, 40, 6.9, 30.69040, 34.56550, 2.2976, 34.5655, 30.6904, 80.80, 0.8239, 1452.30, 292.40, 282.9, 6.78, 7.2, 52
2008/04/16, 01:05:44, 168.70, 0.00, -17.86, -17.30, 997.1, 80.1961380, 11.1605750, , 111.60, 0.49, 245.40, 998.16, 9.00, 0.0, 38.45, 77.77, 88.7, 342, 2.4, 30.68520, 34.56530, 2.2918, 34.5653, 30.6852, 80.50, 0.8268, 1452.32, 297.40, 231.2, 6.46, 2.5, 52
2008/04/16, 01:06:43, 169.30, 0.00, -17.84, -17.20, 997.1, 80.1961000, 11.1613180, , 110.60, 0.50, 245.30, 998.22, 9.20, 0.0, 38.45, 77.79, 88.9, 18, 4.7, 30.68700, 34.56590, 2.2934, 34.5659, 30.6870, 80.50, 0.8316, 1452.34, 291.30, 261.8, 5.97, 4.9, 52
2008/04/16, 01:07:43, 168.10, 0.00, -17.86, -17.20, 997.2, 80.1960580, 11.1620450, , 113.30, 0.53, 245.00, 998.28, 11.00, 0.0, 38.45, 77.89, 89.2, 58, 4.9, 30.68470, 34.56510, 2.2915, 34.5651, 30.6847, 81.20, 0.8351, 1452.35, 286.00, 300.2, 5.78, 5.2, 52
2008/04/16, 01:08:43, 167.60, 0.00, -17.81, -17.10, 997.1, 80.1959930, 11.1628200, , 119.30, 0.52, 245.30, 998.24, 10.50, 0.0, 38.45, 77.99, 89.2, 10, 3.4, 30.68120, 34.56410, 2.2883, 34.5641, 30.6812, 80.80, 0.8391, 1452.37, 296.00, 256.0, 6.12, 3.6, 52
2008/04/16, 01:09:44, 166.90, 0.00, -17.81, -17.00, 997.2, 80.1959350, 11.1636450, , 108.20, 0.61, 244.90, 998.16, 9.90, 0.0, 38.45, 77.99, 89.1, 38, 7.7, 30.67560, 34.56320, 2.2828, 34.5632, 30.6756, 80.80, 0.8443, 1452.39, 293.80, 280.8, 6.25, 8.0, 52
2008/04/16, 01:10:43, 165.70, 0.00, -17.92, -17.10, 997.2, 80.1958820, 11.1645100, , 110.40, 0.55, 245.40, 998.23, 10.40, 0.0, 38.45, 77.89, 88.4, 313, 2.2, 30.67540, 34.56410, 2.2817, 34.5641, 30.6754, 80.80, 0.8492, 1452.41, 296.00, 202.5, 6.83, 2.2, 52
2008/04/16, 01:11:43, 165.60, 0.00, -17.95, -17.30, 997.1, 80.1958370, 11.1653620, , 101.50, 0.54, 245.00, 998.24, 10.70, 0.0, 38.45, 77.79, 88.3, 28, 6.1, 30.67750, 34.56380, 2.2844, 34.5638, 30.6775, 80.50, 0.8545, 1452.44, 290.30, 271.5, 6.13, 6.4, 52
2008/04/16, 01:12:43, 165.30, 0.00, -18.00, -17.30, 997.2, 80.1957930, 11.1661620, , 100.00, 0.46, 245.30, 998.26, 10.00, 0.0, 38.45, 77.64, 88.3, 337, 0.9, 30.68680, 34.56460, 2.2943, 34.5646, 30.6868, 80.50, 0.8625, 1452.47, 288.60, 234.9, 6.70, 1.0, 52
2008/04/16, 01:13:44, 164.90, 0.00, -18.03, -17.30, 997.2, 80.1957480, 11.1670070, , 105.60, 0.56, 245.30, 998.15, 9.70, 0.0, 38.45, 77.62, 88.2, 15, 4.0, 30.69470, 34.56480, 2.3032, 34.5648, 30.6947, 79.90, 0.8694, 1452.51, 288.70, 258.5, 6.49, 4.2, 52
2008/04/16, 01:14:43, 164.20, 0.00, -18.12, -17.40, 997.2, 80.1957100, 11.1678580, , 101.60, 0.52, 245.20, 998.30, 9.60, 0.0, 38.45, 77.57, 88.1, 47, 3.4, 30.69840, 34.56470, 2.3075, 34.5647, 30.6984, 79.90, 0.8762, 1452.54, 287.50, 289.9, 6.56, 3.7, 52
2008/04/16, 01:15:43, 163.90, 0.00, -18.06, -17.40, 997.2, 80.1956700, 11.1686520, , 110.80, 0.53, 245.00, 998.19, 10.40, 0.0, 38.45, 77.57, 88.6, 37, 6.3, 30.70240, 34.56450, 2.3123, 34.5645, 30.7024, 80.20, 0.8810, 1452.56, 291.90, 279.6, 5.58, 6.5, 52
2008/04/16, 01:16:43, 163.60, 0.00, -17.95, -17.30, 997.2, 80.1956120, 11.1694380, , 119.40, 0.50, 245.30, 998.16, 11.10, 0.0, 38.45, 77.62, 88.9, 42, 7.2, 30.70490, 34.56340, 2.3162, 34.5634, 30.7049, 80.20, 0.8846, 1452.57, 293.50, 285.2, 6.03, 7.5, 52
2008/04/16, 01:17:43, 321.30, 0.00, -17.86, -17.20, 997.2, 80.1955350, 11.1702750, , 122.30, 0.61, 245.30, 998.16, 10.70, 0.0, 38.45, 77.84, 89.1, 45, 6.2, 30.70800, 34.56340, 2.3197, 34.5634, 30.7080, 80.20, 0.8886, 1452.59, 297.70, 288.5, 6.41, 6.5, 52
2008/04/16, 01:18:43, 321.00, 0.00, -17.78, -17.10, 997.2, 80.1954600, 11.1711480, , 114.10, 0.58, 245.20, 998.32, 10.00, 0.0, 38.45, 77.99, 89.0, 37, 6.0, 30.71520, 34.56360, 2.3277, 34.5636, 30.7152, 80.20, 0.8927, 1452.61, 298.70, 280.6, 6.30, 6.3, 52
2008/04/16, 01:19:44, 162.90, 0.00, -17.86, -17.10, 997.2, 80.1953950, 11.1719580, , 120.10, 0.61, 244.90, 998.26, 11.80, 0.0, 38.45, 77.97, 88.8, 40, 6.4, 30.72000, 34.56420, 2.3328, 34.5642, 30.7200, 79.60, 0.8956, 1452.62, 294.00, 283.1, 5.88, 6.7, 52
2008/04/16, 01:20:43, 162.70, 0.00, -17.78, -17.10, 997.2, 80.1953170, 11.1727720, , 119.70, 0.62, 245.10, 998.21, 10.80, 0.0, 38.45, 77.87, 88.8, 39, 6.3, 30.72620, 34.56520, 2.3389, 34.5652, 30.7262, 79.00, 0.8973, 1452.63, 295.20, 282.2, 6.26, 6.6, 52
2008/04/16, 01:21:43, 162.20, 0.00, -17.95, -17.10, 997.2, 80.1952380, 11.1735480, , 118.00, 0.49, 244.70, 998.28, 10.30, 0.0, 38.45, 77.72, 88.5, 36, 6.6, 30.73610, 34.56590, 2.3496, 34.5659, 30.7361, 79.30, 0.8973, 1452.63, 296.50, 279.7, 5.88, 6.9, 52
2008/04/16, 01:22:43, 163.20, 0.00, -17.98, -17.20, 997.2, 80.1951850, 11.1743820, , 111.20, 0.61, 225.90, 998.34, 10.70, 0.0, 38.45, 77.79, 88.3, 37, 5.5, 30.74430, 34.56650, 2.3584, 34.5665, 30.7443, 79.00, 0.8976, 1452.63, 279.50, 264.6, 6.16, 5.8, 52
2008/04/16, 01:23:43, 161.00, 0.00, -17.95, -17.20, 997.3, 80.1950530, 11.1756750, , 128.00, 1.24, 198.90, 998.26, 10.90, 0.0, 38.45, 77.69, 88.5, 72, 5.3, 30.74990, 34.56700, 2.3643, 34.5670, 30.7499, 79.00, 0.8967, 1452.63, 256.90, 273.4, 5.98, 5.8, 52
2008/04/16, 01:24:43, 161.30, 0.00, -17.86, -17.20, 997.2, 80.1947670, 11.1775120, , 133.10, 1.68, 190.70, 998.29, 11.10, 0.0, 38.45, 77.74, 88.6, 91, 4.6, 30.75070, 34.56640, 2.3658, 34.5664, 30.7507, 79.00, 0.8922, 1452.61, 276.70, 284.7, 6.17, 5.4, 52
2008/04/16, 01:25:43, 161.00, 0.00, -17.84, -17.20, 997.2, 80.1944300, 11.1795520, , 135.10, 1.71, 191.20, 998.36, 9.80, 0.0, 38.45, 77.69, 88.9, 68, 3.9, 30.75250, 34.56680, 2.3676, 34.5668, 30.7525, 78.70, 0.8868, 1452.59, 286.80, 266.7, 6.29, 4.4, 52
2008/04/16, 01:26:44, 160.80, 0.00, -17.89, -17.10, 997.2, 80.1940880, 11.1815520, , 135.30, 1.73, 190.60, 998.27, 10.00, 0.0, 38.45, 77.69, 88.7, 201, 2.6, 30.75500, 34.56710, 2.3702, 34.5671, 30.7550, 78.70, 0.8821, 1452.57, 287.80, 11.8, 6.30, 3.0, 52
2008/04/16, 01:27:43, 160.50, 0.00, -17.95, -17.10, 997.3, 80.1937500, 11.1834870, , 135.80, 1.73, 190.50, 998.38, 10.50, 0.0, 38.45, 77.79, 88.7, 183, 3.0, 30.75770, 34.56740, 2.3729, 34.5674, 30.7577, 79.60, 0.8785, 1452.55, 291.30, 359.4, 6.44, 3.6, 52
2008/04/16, 01:28:43, 160.00, 0.00, -17.78, -17.10, 997.2, 80.1934020, 11.1854800, , 137.40, 1.71, 190.70, 998.39, 10.30, 0.0, 38.45, 77.74, 88.9, 94, 5.1, 30.75890, 34.56810, 2.3737, 34.5681, 30.7589, 79.30, 0.8760, 1452.54, 290.70, 287.1, 6.10, 5.9, 52
2008/04/16, 01:29:43, 158.90, 0.00, -17.81, -17.10, 997.3, 80.1930670, 11.1874220, , 135.60, 1.64, 190.30, 998.40, 9.70, 0.0, 38.45, 77.72, 88.8, 83, 3.7, 30.75790, 34.56790, 2.3727, 34.5679, 30.7579, 80.50, 0.8786, 1452.55, 291.10, 278.9, 6.68, 4.4, 52
2008/04/16, 01:30:43, 0.00, 0.00, -17.75, -17.10, 997.3, 80.1927330, 11.1893370, , 136.30, 1.61, 190.70, 998.40, 9.70, 0.0, 38.45, 77.82, 88.7, 92, 4.1, 30.75470, 34.56740, 2.3695, 34.5674, 30.7547, 78.70, 0.8896, 1452.60, 288.10, 286.3, 5.62, 4.9, 52
2008/04/16, 01:31:43, 157.40, 0.00, -17.78, -17.00, 997.3, 80.1924020, 11.1912770, , 133.10, 1.75, 190.40, 998.40, 9.80, 0.0, 38.45, 77.89, 89.0, 95, 5.1, 30.75350, 34.56820, 2.3675, 34.5682, 30.7535, 79.00, 0.9035, 1452.66, 287.80, 287.4, 6.33, 5.9, 52